Home   Weather   Nablus   Past weeks

Flag for Palestinian Territories Past Weather in Nablus, West Bank, Palestinian Territories — Yesterday and Last 2 Weeks

Now
68 °F

Scattered clouds.


Feels Like: 68 °F
Forecast: 52 / 67 °F
Wind: 16 mph from West

Location: Ben Gurion International Airport

Current Time: Apr 23, 2017 at 3:05:03 pm

Latest Report: Apr 23, 2017 at 2:50 pm


Visibility: N/A

Pressure: 30.01 "Hg (28.20 "Hg at 534m altitude)

Humidity: 53%

Dew Point: 50 °F

Location of NablusLocation

Past Weather in Nablus — Graph

°F

Nablus Temperature Yesterday

Maximum temperature yesterday: 102 °F (at 12:20 pm)
Minimum temperature yesterday: 64 °F (at 5:20 am)
Average temperature yesterday: 84 °F

High & Low Weather Summary for the Past Weeks

 TemperatureHumidityPressure
High102 °F (Apr 22, 12:20 pm)88% (Apr 14, 3:20 am)30.12 "Hg (Apr 14, 3:20 am)
Low54 °F (Apr 10, 5:50 am)8% (Apr 22, 11:20 am)29.65 "Hg (Apr 13, 1:50 pm)
Average69 °F57%29.95 "Hg
* Reported Apr 8 1:20 pm — Apr 23 1:20 pm, Nablus, Weather by CustomWeather, © 2017

Note: Actual official high and low records may vary slightly from our data, if they occured in-between our weather recording intervals... More about our weather records

Advertising

Nablus Weather History for the Previous 24 Hours

Scroll right to see more
 ConditionsComfort  
Time TempWeatherWind HumidityBarometerVisibility
1:20 pm
Sun, Apr 23
70 °FScattered clouds.14 mph53%30.01 "HgN/A
12:50 pm70 °FScattered clouds.15 mph53%30.01 "HgN/A
12:20 pm70 °FScattered clouds.16 mph53%30.01 "HgN/A
11:20 am70 °FScattered clouds.15 mph60%30.01 "HgN/A
10:50 am70 °FBroken clouds.13 mph57%30.01 "HgN/A
9:50 am66 °FBroken clouds.14 mph68%30.01 "HgN/A
9:20 am68 °FPartly sunny.10 mph64%30.01 "HgN/A
8:20 am68 °FScattered clouds.10 mph60%29.98 "HgN/A
6:50 am66 °FScattered clouds.9 mph78%29.92 "HgN/A
6:20 am66 °FScattered clouds.8 mph78%29.92 "HgN/A
5:50 am66 °FPassing clouds.9 mph78%29.89 "HgN/A
5:20 am66 °FPassing clouds.13 mph83%29.86 "HgN/A
4:50 am66 °FPassing clouds.13 mph83%29.86 "HgN/A
3:20 am66 °FPassing clouds.5 mph88%29.83 "HgN/A
2:50 am68 °FPassing clouds.5 mph83%29.80 "HgN/A
2:20 am68 °FPassing clouds.7 mph88%29.80 "HgN/A
1:50 am70 °FClear.3 mph83%29.77 "Hg10 mi
1:20 am70 °FClear.6 mph78%29.74 "Hg10 mi
12:50 am72 °FClear.10 mph73%29.71 "Hg10 mi
12:20 am72 °FPassing clouds.7 mph41%29.71 "HgN/A
11:50 pm
Sat, Apr 22
75 °FClear.2 mph34%29.68 "Hg10 mi
11:20 pm77 °FClear.5 mph34%29.68 "Hg10 mi
10:50 pm77 °FClear.2 mph34%29.68 "Hg10 mi
10:20 pm75 °FClear.3 mph31%29.71 "Hg10 mi
9:50 pm81 °FClear.3 mph26%29.71 "Hg10 mi
9:20 pm81 °FClear.1 mph30%29.68 "Hg10 mi
8:50 pm82 °FClear.1 mph26%29.68 "Hg10 mi
8:20 pm84 °FClear.5 mph23%29.68 "Hg10 mi
7:50 pm86 °FClear.2 mph19%29.65 "Hg10 mi
7:20 pm88 °FClear.6 mph16%29.65 "Hg10 mi
6:50 pm90 °FSunny.6 mph15%29.65 "Hg10 mi
6:20 pm93 °FSunny.9 mph12%29.65 "Hg10 mi
5:50 pm95 °FSunny.10 mph12%29.65 "Hg10 mi
5:20 pm97 °FSunny.12 mph11%29.65 "Hg10 mi
4:50 pm97 °FSunny.12 mph11%29.65 "Hg10 mi
4:20 pm99 °FSunny.14 mph10%29.65 "Hg10 mi
3:50 pm99 °FSunny.14 mph11%29.65 "Hg10 mi
3:20 pm99 °FSunny.12 mph10%29.68 "Hg10 mi
Weather by CustomWeather, © 2017

See weather overviewHow to use our weather pages